Regional Weather Roundup
Issued by NWS Cleveland, OH

Home | Current Version | Previous Version | Graphics & Text | Print | Product List | Glossary On
Versions: 1 2 3 4 5 6 7 8 9 10 11 12 13 14 15 16 17 18 19 20 21 22 23 24 25 26 27 28 29 30 31 32 33 34 35 36 37 38 39 40 41 42 43 44 45 46 47 48 49 50
000
ASUS41 KCLE 050900
RWRCLE
OHIO REGIONAL WEATHER ROUNDUP
NATIONAL WEATHER SERVICE WILMINGTON, OH
400 AM EST THU MAR 05 2015

NOTE: "FAIR" INDICATES FEW OR NO CLOUDS BELOW 12,000 FEET WITH NO
SIGNIFICANT WEATHER AND/OR OBSTRUCTIONS TO VISIBILITY.

OHZ001>008-015>018-024>027-034-035-043-044-051000-
   NORTHWEST OHIO

CITY           SKY/WX    TMP DP  RH WIND       PRES   REMARKS
DEFIANCE       MOCLDY    15   0  51 N7        30.32R WCI   5
FINDLAY        CLOUDY    17   1  49 N13       30.26F WCI   4
TOLEDO EXPRESS CLOUDY    14   0  53 N7        30.29S WCI   4
TOLEDO EXEC    CLOUDY    16   1  51 N9        30.30S WCI   4
LIMA           CLOUDY    17   3  54 N14       30.26S WCI   3
$$

OHZ009>014-019>023-028>033-038-089-051000-
   NORTHEAST OHIO

CITY           SKY/WX    TMP DP  RH WIND       PRES   REMARKS
CLE-HOPKINS    CLOUDY    16   2  54 N17       30.27S WCI   0
CLE-LAKEFRONT  CLOUDY    16   3  56 N15       30.26S WCI   1
CUY CO. ARPT   NOT AVBL
LORAIN-ELYRIA  CLOUDY    15   3  59 NE13      30.25S WCI   1
ASHTABULA      CLOUDY    14   3  61 N9        30.23R WCI   2
AKRON-CANTON   CLOUDY    17   4  56 N17G23    30.17F WCI   1
WOOSTER        NOT AVBL
MANSFIELD      CLOUDY    15   4  61 N10       30.19F WCI   2
YOUNGSTOWN     FLURRIES  15   6  67 N18       30.18R WCI  -2
$$

OHZ042-051>053-060>062-070>072-077>081-051000-
  SOUTHWEST OHIO

CITY           SKY/WX    TMP DP  RH WIND       PRES   REMARKS
CINC-COVINGTON LGT SNOW  19  10  68 N21G30    30.24S FOG     WCI   3
CINC-LUNKEN    LGT SNOW  19  12  74 N12       30.29R WCI   7
HAMILTON       CLOUDY    21   7  54 N9        30.28S WCI  11
DAYTON         NOT AVBL
WRIGHT-PAT AFB NOT AVBL
DAYTON GENERAL CLOUDY    19   6  57 N13       30.23R WCI   6
WILMINGTON     LGT SNOW  16  10  77 N12       30.23R WCI   3
$$

OHZ036-037-039>041-045>050-054>059-063>069-073>076-082>088-051000-
  CENTRAL AND SOUTHEAST OHIO

CITY           SKY/WX    TMP DP  RH WIND       PRES   REMARKS
COLUMBUS       LGT SNOW  18   7  62 N12       30.22S WCI   5
OSU AIRPORT    CLOUDY    18   4  54 N13       30.22F WCI   5
BOLTON FIELD   NOT AVBL
RICKENBACK AFB NOT AVBL
NEWARK         CLOUDY    19   6  57 N12G18    30.21R WCI   7
MARION         CLOUDY    17   3  54 N13       30.23F WCI   4
LANCASTER      CLOUDY    20   8  60 NW13G22   30.22R WCI   7
ZANESVILLE     CLOUDY    20   7  57 N12G17    30.19R WCI   8
NEW PHILLY     LGT SNOW  20  10  65 N15G22    30.20S WCI   6
$$


USA.gov is the U.S. government's official web portal to all federal, state and local government web resources and services.